Location: Unspecified
(0.0000°N, 0.0000°E)
Time: 15:42:14
(UTC+00:00)

ISS - Pass Details

Date: 16 September 2020
Orbit: 419 x 420 km, 51.6° (Epoch: 19 September)

Event Time Altitude Azimuth Distance (km) Brightness Sun altitude
Exits shadow 04:35:19 - 353° (N) 2,288 -0.1 -19.9°
Reaches altitude 10° 04:37:52 10° 16° (NNE) 1,487 -0.8 -19.2°
Maximum altitude 04:39:56 15° 54° (NE) 1,203 -0.7 -18.7°
Drops below altitude 10° 04:42:01 10° 93° (E) 1,492 0.3 -18.2°
Sets 04:44:44 0° 116° (ESE) 2,359 1.1 -17.5°
